Location: Newark
(50.9000°N, 14.8333°E)
Time: 10:06:20
(UTC+00:00)

N. Korean satellite - Visible Passes

Search period start: 27 October 2020 00:00
Search period end: 06 November 2020 00:00
Orbit: 452 x 505 km, 97.2° (Epoch: 26 October)

Date Brightness Start Highest point End Pass type
(mag) Time Alt. Az. Time Alt. Az. Time Alt. Az.
27 Oct 9.3 03:51:49 10° NE 03:54:28 21° E 03:57:07 10° SE visible
28 Oct 10.1 03:27:05 10° ENE 03:28:06 11° E 03:29:07 10° ESE visible
28 Oct 6.4 04:58:28 10° N 05:01:52 63° WNW 05:05:14 10° SSW visible
29 Oct 7.0 04:32:19 10° NNE 04:35:44 62° E 04:39:06 10° S visible
29 Oct 10.0 16:47:01 10° SW 16:49:03 15° W 16:51:05 10° NW visible
30 Oct 8.6 04:06:26 10° NNE 04:09:30 30° E 04:12:32 10° SSE visible
30 Oct 9.1 16:19:40 10° SSW 16:22:43 27° W 16:25:45 10° NW visible
31 Oct 9.7 03:40:57 10° NE 03:43:09 16° E 03:45:21 10° SE visible
31 Oct 6.8 05:13:28 10° N 05:16:44 41° WNW 05:19:57 10° SW visible
01 Nov 6.4 04:47:11 10° NNE 04:50:38 86° WNW 04:54:03 10° SSW visible
02 Nov 7.7 04:21:08 10° NNE 04:24:26 45° E 04:27:44 10° S visible
02 Nov 9.7 16:35:09 10° SW 16:37:42 19° W 16:40:14 10° NW visible
03 Nov 9.1 03:55:21 10° NE 03:58:09 23° E 04:00:55 10° SSE visible
03 Nov 8.5 16:08:08 10° SSW 16:11:22 35° W 16:14:36 10° NNW visible
04 Nov 10.0 03:30:16 10° ENE 03:31:45 12° E 03:33:14 10° ESE visible
04 Nov 6.5 05:02:05 10° N 05:05:27 56° WNW 05:08:49 10° SSW visible
05 Nov 6.8 04:35:51 10° NNE 04:39:18 70° ESE 04:42:43 10° S visible
05 Nov 10.0 16:50:59 10° WSW 16:52:40 13° W 16:54:20 10° WNW visible
